Location: ????????
(55.4000°N, 39.1167°E)
Time: 06:46:11
(UTC+00:00)

Cosmos 1733 Rocket - Pass Details

Date: 19 May 2025
Orbit: 598 x 621 km, 82.5° (Epoch: 23 June)

Event Time Altitude Azimuth Distance (km) Brightness Sun altitude
Rises 23:31:30 0° 346° (NNW) 2,912 7.3 -9.6°
Reaches altitude 10° 23:33:44 10° 345° (NNW) 2,003 6.3 -9.4°
Maximum altitude 23:38:09 72° 262° (W) 658 3.1 -9.1°
Drops below altitude 10° 23:42:33 10° 178° (S) 1,988 5.2 -8.8°
Enters shadow 23:43:29 - 177° (S) 2,367 5.6 -8.7°
